sat.trackr.live / text

‹ back to catalog

STARLINK-6380

NORAD 57344 · 2023-099S

PAYLOAD ACTIVE UNKNOWN

§ Identity

Operator
Country
US
Launch date
2023-07-16
Launch site
AFETR
Launch vehicle
Mass (kg)
RCS (m²)

Purposes: comms

External: N2YO · Heavens-Above · Gunter

§ Orbital elements

Epoch: 2026-05-25T03:40:41.511072Z

Period
94.27 min
Inclination
43.0028°
Eccentricity
0.0001711
Mean motion
15.27577062 rev/d
Perigee alt
481.9 km
Apogee alt
484.2 km
Semi-major
6,861.2 km
B*
4.6391e-5
RAAN
180.3037°
Arg perigee
289.9356°
Mean anomaly
70.1311°
Rev number
15,777

§ Raw data

STARLINK-63801 57344U 23099S   26145.15325823  .00001014  00000+0  46391-4 0  99952 57344  43.0028 180.3037 0001711 289.9356  70.1311 15.27577062157778

JSON: /api/v1/satellites/57344 · /tle

For live sub-satellite position, see the globe view (requires WebGL).

§ Visibility from observer

Set your observer location to see the next 7 days of passes ≥ 10°. The values pass through the URL so the page stays shareable.

No JS? Fill the form by hand. The geolocation button needs JavaScript.